Year,Month,Day,Hour,Minute,Value (Times are PST for temperature in C)
2014,07,22,00,00,16.80
2014,07,22,00,01,16.80
2014,07,22,00,02,16.80
2014,07,22,00,03,16.80
2014,07,22,00,04,16.80
2014,07,22,00,05,16.80
2014,07,22,00,06,16.80
2014,07,22,00,07,16.80
2014,07,22,00,08,16.80
2014,07,22,00,09,16.80
2014,07,22,00,10,16.70
2014,07,22,00,11,16.70
2014,07,22,00,12,16.70
2014,07,22,00,13,16.70
2014,07,22,00,14,16.70
2014,07,22,00,15,16.70
2014,07,22,00,16,16.70
2014,07,22,00,17,16.70
2014,07,22,00,18,16.70
2014,07,22,00,19,16.70
2014,07,22,00,20,16.60
2014,07,22,00,21,16.60
2014,07,22,00,22,16.60
2014,07,22,00,23,16.60
2014,07,22,00,24,16.60
2014,07,22,00,25,16.50
2014,07,22,00,26,16.50
2014,07,22,00,27,16.50
2014,07,22,00,28,16.50
2014,07,22,00,29,16.40
2014,07,22,00,30,16.40
2014,07,22,00,31,16.40
2014,07,22,00,32,16.40
2014,07,22,00,33,16.30
2014,07,22,00,34,16.30
2014,07,22,00,35,16.30
2014,07,22,00,36,16.30
2014,07,22,00,37,16.30
2014,07,22,00,38,16.20
2014,07,22,00,39,16.20
2014,07,22,00,40,16.20
2014,07,22,00,41,16.20
2014,07,22,00,42,16.20
2014,07,22,00,43,16.10
2014,07,22,00,44,16.10
2014,07,22,00,45,16.10
2014,07,22,00,46,16.10
2014,07,22,00,47,16.10
2014,07,22,00,48,16.10
2014,07,22,00,49,16.10
2014,07,22,00,50,16.10
2014,07,22,00,51,16.10
2014,07,22,00,52,16.10
2014,07,22,00,53,16.10
2014,07,22,00,54,16.10
2014,07,22,00,55,16.10
2014,07,22,00,56,16.10
2014,07,22,00,57,16.10
2014,07,22,00,58,16.10
2014,07,22,00,59,16.10
2014,07,22,01,00,16.10
2014,07,22,01,01,16.10
2014,07,22,01,02,16.10
2014,07,22,01,03,16.10
2014,07,22,01,04,16.00
2014,07,22,01,05,16.00
2014,07,22,01,06,16.00
2014,07,22,01,07,15.90
2014,07,22,01,08,15.90
2014,07,22,01,09,15.90
2014,07,22,01,10,15.90
2014,07,22,01,11,15.90
2014,07,22,01,12,15.90
2014,07,22,01,13,15.90
2014,07,22,01,14,15.90
2014,07,22,01,15,15.90
2014,07,22,01,16,15.90
2014,07,22,01,17,15.80
2014,07,22,01,18,15.80
2014,07,22,01,19,15.80
2014,07,22,01,20,15.80
2014,07,22,01,21,15.80
2014,07,22,01,22,15.80
2014,07,22,01,23,15.80
2014,07,22,01,24,15.80
2014,07,22,01,25,15.80
2014,07,22,01,26,15.80
2014,07,22,01,27,15.80
2014,07,22,01,28,15.80
2014,07,22,01,29,15.80
2014,07,22,01,30,15.80
2014,07,22,01,31,15.80
2014,07,22,01,32,15.80
2014,07,22,01,33,15.70
2014,07,22,01,34,15.70
2014,07,22,01,35,15.70
2014,07,22,01,36,15.70
2014,07,22,01,37,15.70
2014,07,22,01,38,15.70
2014,07,22,01,39,15.70
2014,07,22,01,40,15.70
2014,07,22,01,41,15.60
2014,07,22,01,42,15.60
2014,07,22,01,43,15.60
2014,07,22,01,44,15.70
2014,07,22,01,45,15.70
2014,07,22,01,46,15.70
2014,07,22,01,47,15.70
2014,07,22,01,48,15.70
2014,07,22,01,49,15.70
2014,07,22,01,50,15.70
2014,07,22,01,51,15.70
2014,07,22,01,52,15.70
2014,07,22,01,53,15.70
2014,07,22,01,54,15.70
2014,07,22,01,55,15.70
2014,07,22,01,56,15.70
2014,07,22,01,57,15.70
2014,07,22,01,58,15.70
2014,07,22,01,59,15.70
2014,07,22,02,00,15.70
2014,07,22,02,01,15.70
2014,07,22,02,02,15.70
2014,07,22,02,03,15.70
2014,07,22,02,04,15.70
2014,07,22,02,05,15.70
2014,07,22,02,06,15.70
2014,07,22,02,07,15.70
2014,07,22,02,08,15.70
2014,07,22,02,09,15.70
2014,07,22,02,10,15.70
2014,07,22,02,11,15.70
2014,07,22,02,12,15.70
2014,07,22,02,13,15.70
2014,07,22,02,14,15.70
2014,07,22,02,15,15.60
2014,07,22,02,16,15.60
2014,07,22,02,17,15.60
2014,07,22,02,18,15.60
2014,07,22,02,19,15.60
2014,07,22,02,20,15.60
2014,07,22,02,21,15.50
2014,07,22,02,22,15.50
2014,07,22,02,23,15.40
2014,07,22,02,24,15.40
2014,07,22,02,25,15.40
2014,07,22,02,26,15.40
2014,07,22,02,27,15.40
2014,07,22,02,28,15.40
2014,07,22,02,29,15.40
2014,07,22,02,30,15.40
2014,07,22,02,31,15.40
2014,07,22,02,32,15.40
2014,07,22,02,33,15.50
2014,07,22,02,34,15.40
2014,07,22,02,35,15.40
2014,07,22,02,36,15.40
2014,07,22,02,37,15.50
2014,07,22,02,38,15.40
2014,07,22,02,39,15.40
2014,07,22,02,40,15.40
2014,07,22,02,41,15.40
2014,07,22,02,42,15.40
2014,07,22,02,43,15.40
2014,07,22,02,44,15.40
2014,07,22,02,45,15.40
2014,07,22,02,46,15.40
2014,07,22,02,47,15.30
2014,07,22,02,48,15.30
2014,07,22,02,49,15.30
2014,07,22,02,50,15.30
2014,07,22,02,51,15.20
2014,07,22,02,52,15.20
2014,07,22,02,53,15.20
2014,07,22,02,54,15.10
2014,07,22,02,55,15.10
2014,07,22,02,56,15.10
2014,07,22,02,57,15.10
2014,07,22,02,58,15.10
2014,07,22,02,59,15.20
2014,07,22,03,00,15.20
2014,07,22,03,01,15.20
2014,07,22,03,02,15.20
2014,07,22,03,06,15.20
2014,07,22,03,07,15.20
2014,07,22,03,08,15.20
2014,07,22,03,09,15.10
2014,07,22,03,10,15.10
2014,07,22,03,11,15.10
2014,07,22,03,12,15.10
2014,07,22,03,13,15.00
2014,07,22,03,14,15.00
2014,07,22,03,15,15.00
2014,07,22,03,16,15.00
2014,07,22,03,17,14.90
2014,07,22,03,18,14.90
2014,07,22,03,19,14.90
2014,07,22,03,20,14.80
2014,07,22,03,21,14.80
2014,07,22,03,22,14.80
2014,07,22,03,23,14.70
2014,07,22,03,24,14.70
2014,07,22,03,25,14.70
2014,07,22,03,26,14.60
2014,07,22,03,27,14.60
2014,07,22,03,28,14.60
2014,07,22,03,29,14.50
2014,07,22,03,30,14.50
2014,07,22,03,31,14.40
2014,07,22,03,32,14.40
2014,07,22,03,33,14.30
2014,07,22,03,34,14.30
2014,07,22,03,35,14.20
2014,07,22,03,36,14.20
2014,07,22,03,37,14.10
2014,07,22,03,38,14.10
2014,07,22,03,39,14.10
2014,07,22,03,40,14.00
2014,07,22,03,41,14.00
2014,07,22,03,42,13.90
2014,07,22,03,43,13.90
2014,07,22,03,44,13.90
2014,07,22,03,45,13.90
2014,07,22,03,46,13.80
2014,07,22,03,47,13.80
2014,07,22,03,48,13.80
2014,07,22,03,49,13.80
2014,07,22,03,50,13.80
2014,07,22,03,51,13.70
2014,07,22,03,52,13.70
2014,07,22,03,53,13.70
2014,07,22,03,54,13.70
2014,07,22,03,55,13.60
2014,07,22,03,56,13.60
2014,07,22,03,57,13.60
2014,07,22,03,58,13.60
2014,07,22,03,59,13.60
2014,07,22,04,00,13.60
2014,07,22,04,01,13.70
2014,07,22,04,02,13.70
2014,07,22,04,03,13.70
2014,07,22,04,04,13.80
2014,07,22,04,05,13.80
2014,07,22,04,06,13.80
2014,07,22,04,07,13.90
2014,07,22,04,08,14.00
2014,07,22,04,09,14.00
2014,07,22,04,10,14.10
2014,07,22,04,11,14.10
2014,07,22,04,12,14.20
2014,07,22,04,13,14.20
2014,07,22,04,14,14.20
2014,07,22,04,15,14.20
2014,07,22,04,16,14.20
2014,07,22,04,17,14.10
2014,07,22,04,18,14.10
2014,07,22,04,19,14.00
2014,07,22,04,20,14.00
2014,07,22,04,21,13.90
2014,07,22,04,22,13.90
2014,07,22,04,23,13.80
2014,07,22,04,24,13.80
2014,07,22,04,25,13.80
2014,07,22,04,26,13.80
2014,07,22,04,27,13.80
2014,07,22,04,28,13.70
2014,07,22,04,29,13.70
2014,07,22,04,30,13.60
2014,07,22,04,31,13.60
2014,07,22,04,32,13.60
2014,07,22,04,33,13.60
2014,07,22,04,34,13.50
2014,07,22,04,35,13.50
2014,07,22,04,36,13.50
2014,07,22,04,37,13.40
2014,07,22,04,38,13.40
2014,07,22,04,39,13.40
2014,07,22,04,40,13.40
2014,07,22,04,41,13.40
2014,07,22,04,42,13.40
2014,07,22,04,43,13.40
2014,07,22,04,44,13.40
2014,07,22,04,45,13.50
2014,07,22,04,46,13.50
2014,07,22,04,47,13.60
2014,07,22,04,48,13.60
2014,07,22,04,49,13.70
2014,07,22,04,50,13.70
2014,07,22,04,51,13.70
2014,07,22,04,52,13.80
2014,07,22,04,53,13.80
2014,07,22,04,54,13.80
2014,07,22,04,55,13.80
2014,07,22,04,56,13.80
2014,07,22,04,57,13.80
2014,07,22,04,58,13.80
2014,07,22,04,59,13.80
2014,07,22,05,00,13.80
2014,07,22,05,01,13.80
2014,07,22,05,02,13.80
2014,07,22,05,03,13.80
2014,07,22,05,04,13.80
2014,07,22,05,05,13.80
2014,07,22,05,06,13.70
2014,07,22,05,07,13.70
2014,07,22,05,08,13.70
2014,07,22,05,09,13.70
2014,07,22,05,10,13.70
2014,07,22,05,11,13.60
2014,07,22,05,12,13.60
2014,07,22,05,13,13.60
2014,07,22,05,14,13.60
2014,07,22,05,15,13.50
2014,07,22,05,16,13.50
2014,07,22,05,17,13.50
2014,07,22,05,18,13.50
2014,07,22,05,19,13.40
2014,07,22,05,20,13.40
2014,07,22,05,21,13.40
2014,07,22,05,22,13.40
2014,07,22,05,23,13.40
2014,07,22,05,24,13.40
2014,07,22,05,25,13.40
2014,07,22,05,26,13.40
2014,07,22,05,27,13.30
2014,07,22,05,28,13.30
2014,07,22,05,29,13.30
2014,07,22,05,30,13.30
2014,07,22,05,31,13.30
2014,07,22,05,32,13.30
2014,07,22,05,33,13.30
2014,07,22,05,34,13.30
2014,07,22,05,35,13.30
2014,07,22,05,36,13.20
2014,07,22,05,37,13.20
2014,07,22,05,38,13.20
2014,07,22,05,39,13.20
2014,07,22,05,40,13.20
2014,07,22,05,41,13.20
2014,07,22,05,42,13.20
2014,07,22,05,43,13.20
2014,07,22,05,44,13.10
2014,07,22,05,45,13.10
2014,07,22,05,46,13.10
2014,07,22,05,47,13.10
2014,07,22,05,48,13.10
2014,07,22,05,49,13.00
2014,07,22,05,50,13.00
2014,07,22,05,51,13.00
2014,07,22,05,52,13.00
2014,07,22,05,53,13.00
2014,07,22,05,54,13.00
2014,07,22,05,55,13.00
2014,07,22,05,56,13.00
2014,07,22,05,57,13.00
2014,07,22,05,58,13.10
2014,07,22,05,59,13.10
2014,07,22,06,00,13.10
2014,07,22,06,01,13.20
2014,07,22,06,02,13.30
2014,07,22,06,03,13.30
2014,07,22,06,04,13.40
2014,07,22,06,05,13.50
2014,07,22,06,06,13.60
2014,07,22,06,07,13.70
2014,07,22,06,08,13.80
2014,07,22,06,09,13.90
2014,07,22,06,10,14.00
2014,07,22,06,11,14.10
2014,07,22,06,12,14.20
2014,07,22,06,13,14.30
2014,07,22,06,14,14.30
2014,07,22,06,15,14.40
2014,07,22,06,16,14.40
2014,07,22,06,17,14.50
2014,07,22,06,18,14.60
2014,07,22,06,19,14.70
2014,07,22,06,20,14.70
2014,07,22,06,21,14.80
2014,07,22,06,22,14.80
2014,07,22,06,23,14.90
2014,07,22,06,24,14.90
2014,07,22,06,25,15.00
2014,07,22,06,26,15.00
2014,07,22,06,27,15.00
2014,07,22,06,28,15.10
2014,07,22,06,29,15.10
2014,07,22,06,30,15.20
2014,07,22,06,31,15.20
2014,07,22,06,32,15.20
2014,07,22,06,33,15.30
2014,07,22,06,34,15.30
2014,07,22,06,35,15.30
2014,07,22,06,36,15.30
2014,07,22,06,37,15.40
2014,07,22,06,38,15.40
2014,07,22,06,39,15.40
2014,07,22,06,40,15.40
2014,07,22,06,41,15.40
2014,07,22,06,42,15.40
2014,07,22,06,43,15.40
2014,07,22,06,44,15.30
2014,07,22,06,45,15.40
2014,07,22,06,46,15.40
2014,07,22,06,47,15.40
2014,07,22,06,48,15.40
2014,07,22,06,49,15.40
2014,07,22,06,50,15.40
2014,07,22,06,51,15.40
2014,07,22,06,52,15.50
2014,07,22,06,53,15.50
2014,07,22,06,54,15.50
2014,07,22,06,55,15.50
2014,07,22,06,56,15.50
2014,07,22,06,57,15.50
2014,07,22,06,58,15.50
2014,07,22,06,59,15.50
2014,07,22,07,00,15.50
2014,07,22,07,01,15.50
2014,07,22,07,02,15.50
2014,07,22,07,03,15.60
2014,07,22,07,04,15.60
2014,07,22,07,05,15.60
2014,07,22,07,06,15.60
2014,07,22,07,07,15.60
2014,07,22,07,08,15.60
2014,07,22,07,09,15.60
2014,07,22,07,10,15.60
2014,07,22,07,11,15.60
2014,07,22,07,12,15.60
2014,07,22,07,13,15.60
2014,07,22,07,14,15.60
2014,07,22,07,15,15.50
2014,07,22,07,16,15.50
2014,07,22,07,17,15.50
2014,07,22,07,18,15.50
2014,07,22,07,19,15.50
2014,07,22,07,20,15.50
2014,07,22,07,21,15.50
2014,07,22,07,22,15.60
2014,07,22,07,23,15.60
2014,07,22,07,24,15.60
2014,07,22,07,25,15.60
2014,07,22,07,26,15.60
2014,07,22,07,27,15.60
2014,07,22,07,28,15.60
2014,07,22,07,29,15.60
2014,07,22,07,30,15.50
2014,07,22,07,31,15.50
2014,07,22,07,32,15.50
2014,07,22,07,33,15.50
2014,07,22,07,34,15.50
2014,07,22,07,35,15.50
2014,07,22,07,36,15.60
2014,07,22,07,37,15.60
2014,07,22,07,38,15.60
2014,07,22,07,39,15.60
2014,07,22,07,40,15.60
2014,07,22,07,41,15.60
2014,07,22,07,42,15.60
2014,07,22,07,43,15.70
2014,07,22,07,44,15.70
2014,07,22,07,45,15.70
2014,07,22,07,46,15.70
2014,07,22,07,47,15.70
2014,07,22,07,48,15.70
2014,07,22,07,49,15.70
2014,07,22,07,50,15.70
2014,07,22,07,51,15.70
2014,07,22,07,52,15.70
2014,07,22,07,53,15.80
2014,07,22,07,54,15.80
2014,07,22,07,55,15.80
2014,07,22,07,56,15.90
2014,07,22,07,57,15.90
2014,07,22,07,58,16.00
2014,07,22,07,59,16.10
2014,07,22,08,00,16.20
2014,07,22,08,01,16.30
2014,07,22,08,02,16.40
2014,07,22,08,03,16.50
2014,07,22,08,04,16.60
2014,07,22,08,05,16.70
2014,07,22,08,06,16.70
2014,07,22,08,07,16.80
2014,07,22,08,08,16.90
2014,07,22,08,09,16.90
2014,07,22,08,10,17.00
2014,07,22,08,11,17.10
2014,07,22,08,12,17.10
2014,07,22,08,13,17.20
2014,07,22,08,14,17.20
2014,07,22,08,15,17.20
2014,07,22,08,16,17.20
2014,07,22,08,17,17.20
2014,07,22,08,18,17.20
2014,07,22,08,19,17.20
2014,07,22,08,20,17.20
2014,07,22,08,21,17.10
2014,07,22,08,22,17.10
2014,07,22,08,23,17.10
2014,07,22,08,24,17.10
2014,07,22,08,25,17.10
2014,07,22,08,26,17.10
2014,07,22,08,27,17.10
2014,07,22,08,28,17.20
2014,07,22,08,29,17.10
2014,07,22,08,30,17.10
2014,07,22,08,31,17.10
2014,07,22,08,32,17.20
2014,07,22,08,33,17.20
2014,07,22,08,34,17.20
2014,07,22,08,35,17.20
2014,07,22,08,36,17.30
2014,07,22,08,37,17.30
2014,07,22,08,38,17.40
2014,07,22,08,39,17.50
2014,07,22,08,40,17.60
2014,07,22,08,41,17.60
2014,07,22,08,42,17.70
2014,07,22,08,43,17.70
2014,07,22,08,44,17.70
2014,07,22,08,45,17.60
2014,07,22,08,46,17.60
2014,07,22,08,47,17.70
2014,07,22,08,48,17.70
2014,07,22,08,49,17.70
2014,07,22,08,50,17.70
2014,07,22,08,51,17.70
2014,07,22,08,52,17.70
2014,07,22,08,53,17.80
2014,07,22,08,54,17.80
2014,07,22,08,55,17.80
2014,07,22,08,56,17.80
2014,07,22,08,57,17.90
2014,07,22,08,58,17.90
2014,07,22,08,59,17.90
2014,07,22,09,00,18.00
2014,07,22,09,01,18.10
2014,07,22,09,02,18.10
2014,07,22,09,03,18.10
2014,07,22,09,04,18.10
2014,07,22,09,05,18.20
2014,07,22,09,06,18.20
2014,07,22,09,07,18.30
2014,07,22,09,08,18.30
2014,07,22,09,09,18.40
2014,07,22,09,10,18.40
2014,07,22,09,11,18.40
2014,07,22,09,12,18.50
2014,07,22,09,13,18.50
2014,07,22,09,14,18.60
2014,07,22,09,15,18.60
2014,07,22,09,16,18.60
2014,07,22,09,17,18.50
2014,07,22,09,18,18.50
2014,07,22,09,19,18.50
2014,07,22,09,20,18.40
2014,07,22,09,21,18.40
2014,07,22,09,22,18.40
2014,07,22,09,23,18.40
2014,07,22,09,24,18.40
2014,07,22,09,25,18.30
2014,07,22,09,26,18.30
2014,07,22,09,27,18.30
2014,07,22,09,28,18.30
2014,07,22,09,29,18.40
2014,07,22,09,30,18.40
2014,07,22,09,31,18.50
2014,07,22,09,32,18.50
2014,07,22,09,33,18.60
2014,07,22,09,34,18.70
2014,07,22,09,35,18.70
2014,07,22,09,36,18.80
2014,07,22,09,37,18.80
2014,07,22,09,38,18.80
2014,07,22,09,39,18.80
2014,07,22,09,40,18.70
2014,07,22,09,41,18.60
2014,07,22,09,42,18.60
2014,07,22,09,43,18.60
2014,07,22,09,44,18.40
2014,07,22,09,45,18.30
2014,07,22,09,46,18.20
2014,07,22,09,47,18.10
2014,07,22,09,48,18.00
2014,07,22,09,49,18.00
2014,07,22,09,50,18.00
2014,07,22,09,51,18.00
2014,07,22,09,52,18.10
2014,07,22,09,53,18.10
2014,07,22,09,54,18.20
2014,07,22,09,55,18.20
2014,07,22,09,56,18.30
2014,07,22,09,57,18.40
2014,07,22,09,58,18.50
2014,07,22,09,59,18.60
2014,07,22,10,00,18.70
2014,07,22,10,01,18.90
2014,07,22,10,02,19.10
2014,07,22,10,03,19.20
2014,07,22,10,04,19.40
2014,07,22,10,05,19.50
2014,07,22,10,06,19.60
2014,07,22,10,07,19.70
2014,07,22,10,08,19.90
2014,07,22,10,09,20.10
2014,07,22,10,10,20.20
2014,07,22,10,11,20.30
2014,07,22,10,12,20.30
2014,07,22,10,13,20.30
2014,07,22,10,14,20.30
2014,07,22,10,15,20.30
2014,07,22,10,16,20.30
2014,07,22,10,17,20.30
2014,07,22,10,18,20.30
2014,07,22,10,19,20.30
2014,07,22,10,20,20.30
2014,07,22,10,21,20.30
2014,07,22,10,22,20.30
2014,07,22,10,23,20.40
2014,07,22,10,24,20.50
2014,07,22,10,25,20.50
2014,07,22,10,26,20.60
2014,07,22,10,27,20.70
2014,07,22,10,28,20.70
2014,07,22,10,29,20.70
2014,07,22,10,30,20.80
2014,07,22,10,31,20.80
2014,07,22,10,32,20.90
2014,07,22,10,33,20.90
2014,07,22,10,34,21.00
2014,07,22,10,35,21.00
2014,07,22,10,36,21.00
2014,07,22,10,37,21.10
2014,07,22,10,38,21.10
2014,07,22,10,39,21.10
2014,07,22,10,40,21.10
2014,07,22,10,41,21.20
2014,07,22,10,42,21.20
2014,07,22,10,43,21.10
2014,07,22,10,44,21.00
2014,07,22,10,45,20.90
2014,07,22,10,46,20.90
2014,07,22,10,47,20.80
2014,07,22,10,48,20.80
2014,07,22,10,49,20.70
2014,07,22,10,50,20.40
2014,07,22,10,51,20.10
2014,07,22,10,52,19.70
2014,07,22,10,53,19.40
2014,07,22,10,54,19.10
2014,07,22,10,55,19.00
2014,07,22,10,56,19.00
2014,07,22,10,57,19.00
2014,07,22,10,58,19.00
2014,07,22,10,59,19.10
2014,07,22,11,00,19.10
2014,07,22,11,01,19.10
2014,07,22,11,02,19.10
2014,07,22,11,03,19.10
2014,07,22,11,04,19.10
2014,07,22,11,05,19.20
2014,07,22,11,06,19.20
2014,07,22,11,07,19.30
2014,07,22,11,08,19.30
2014,07,22,11,09,19.30
2014,07,22,11,10,19.40
2014,07,22,11,11,19.50
2014,07,22,11,12,19.60
2014,07,22,11,13,19.60
2014,07,22,11,14,19.70
2014,07,22,11,15,19.80
2014,07,22,11,16,19.80
2014,07,22,11,17,19.90
2014,07,22,11,18,20.00
2014,07,22,11,19,20.10
2014,07,22,11,20,20.10
2014,07,22,11,21,20.10
2014,07,22,11,22,20.10
2014,07,22,11,23,20.10
2014,07,22,11,24,20.10
2014,07,22,11,25,20.10
2014,07,22,11,26,20.10
2014,07,22,11,27,20.10
2014,07,22,11,28,20.10
2014,07,22,11,29,20.10
2014,07,22,11,30,20.10
2014,07,22,11,31,20.20
2014,07,22,11,32,20.10
2014,07,22,11,33,20.10
2014,07,22,11,34,20.00
2014,07,22,11,35,19.80
2014,07,22,11,36,19.80
2014,07,22,11,37,19.80
2014,07,22,11,38,19.80
2014,07,22,11,39,19.80
2014,07,22,11,40,19.80
2014,07,22,11,41,19.70
2014,07,22,11,42,19.70
2014,07,22,11,43,19.70
2014,07,22,11,44,19.60
2014,07,22,11,45,19.50
2014,07,22,11,46,19.50
2014,07,22,11,47,19.40
2014,07,22,11,48,19.40
2014,07,22,11,49,19.30
2014,07,22,11,50,19.30
2014,07,22,11,51,19.30
2014,07,22,11,52,19.30
2014,07,22,11,53,19.40
2014,07,22,11,54,19.30
2014,07,22,11,55,19.30
2014,07,22,11,56,19.30
2014,07,22,11,57,19.30
2014,07,22,11,58,19.30
2014,07,22,11,59,19.30
2014,07,22,12,00,19.30
2014,07,22,12,01,19.20
2014,07,22,12,02,19.20
2014,07,22,12,03,19.20
2014,07,22,12,04,19.10
2014,07,22,12,05,19.10
2014,07,22,12,06,19.10
2014,07,22,12,07,19.10
2014,07,22,12,08,19.10
2014,07,22,12,09,19.10
2014,07,22,12,10,19.00
2014,07,22,12,11,19.00
2014,07,22,12,12,19.00
2014,07,22,12,13,19.00
2014,07,22,12,14,19.10
2014,07,22,12,15,19.10
2014,07,22,12,16,19.10
2014,07,22,12,17,19.10
2014,07,22,12,18,19.10
2014,07,22,12,19,19.10
2014,07,22,12,20,19.10
2014,07,22,12,21,19.10
2014,07,22,12,22,19.10
2014,07,22,12,23,19.10
2014,07,22,12,24,19.10
2014,07,22,12,25,19.10
2014,07,22,12,26,19.20
2014,07,22,12,27,19.20
2014,07,22,12,28,19.20
2014,07,22,12,29,19.20
2014,07,22,12,30,19.20
2014,07,22,12,31,19.20
2014,07,22,12,32,19.20
2014,07,22,12,33,19.20
2014,07,22,12,34,19.10
2014,07,22,12,35,19.10
2014,07,22,12,36,19.10
2014,07,22,12,37,19.10
2014,07,22,12,38,19.00
2014,07,22,12,39,19.00
2014,07,22,12,40,18.90
2014,07,22,12,41,18.90
2014,07,22,12,42,18.90
2014,07,22,12,43,18.90
2014,07,22,12,44,18.90
2014,07,22,12,45,18.80
2014,07,22,12,46,18.80
2014,07,22,12,47,18.80
2014,07,22,12,48,18.80
2014,07,22,12,49,18.80
2014,07,22,12,50,18.70
2014,07,22,12,51,18.70
2014,07,22,12,52,18.70
2014,07,22,12,53,18.70
2014,07,22,12,54,18.70
2014,07,22,12,55,18.70
2014,07,22,12,56,18.70
2014,07,22,12,57,18.70
2014,07,22,12,58,18.70
2014,07,22,12,59,18.70
2014,07,22,13,00,18.70
2014,07,22,13,01,18.70
2014,07,22,13,02,18.70
2014,07,22,13,03,18.70
2014,07,22,13,04,18.70
2014,07,22,13,05,18.80
2014,07,22,13,06,18.80
2014,07,22,13,07,18.80
2014,07,22,13,08,18.80
2014,07,22,13,09,18.80
2014,07,22,13,10,18.80
2014,07,22,13,11,18.80
2014,07,22,13,12,18.80
2014,07,22,13,13,18.80
2014,07,22,13,14,18.80
2014,07,22,13,15,18.90
2014,07,22,13,16,18.90
2014,07,22,13,17,18.90
2014,07,22,13,18,18.90
2014,07,22,13,19,18.90
2014,07,22,13,20,18.90
2014,07,22,13,21,18.90
2014,07,22,13,22,19.00
2014,07,22,13,23,19.00
2014,07,22,13,24,19.10
2014,07,22,13,25,19.10
2014,07,22,13,26,19.10
2014,07,22,13,27,19.10
2014,07,22,13,28,19.10
2014,07,22,13,29,19.20
2014,07,22,13,30,19.20
2014,07,22,13,31,19.10
2014,07,22,13,32,19.10
2014,07,22,13,33,19.10
2014,07,22,13,34,19.10
2014,07,22,13,35,19.10
2014,07,22,13,36,19.10
2014,07,22,13,37,19.10
2014,07,22,13,38,19.10
2014,07,22,13,39,19.00
2014,07,22,13,40,19.00
2014,07,22,13,41,19.00
2014,07,22,13,42,19.00
2014,07,22,13,43,19.00
2014,07,22,13,44,18.90
2014,07,22,13,45,18.90
2014,07,22,13,46,18.90
2014,07,22,13,47,18.90
2014,07,22,13,48,18.90
2014,07,22,13,49,18.90
2014,07,22,13,50,18.90
2014,07,22,13,51,18.90
2014,07,22,13,52,19.00
2014,07,22,13,53,19.00
2014,07,22,13,54,19.00
2014,07,22,13,55,19.00
2014,07,22,13,56,19.00
2014,07,22,13,57,19.10
2014,07,22,13,58,19.10
2014,07,22,13,59,19.20
2014,07,22,14,00,19.20
2014,07,22,14,01,19.30
2014,07,22,14,02,19.30
2014,07,22,14,03,19.30
2014,07,22,14,04,19.40
2014,07,22,14,05,19.50
2014,07,22,14,06,19.50
2014,07,22,14,07,19.60
2014,07,22,14,08,19.70
2014,07,22,14,09,19.70
2014,07,22,14,10,19.80
2014,07,22,14,11,19.90
2014,07,22,14,12,20.00
2014,07,22,14,13,20.00
2014,07,22,14,14,20.10
2014,07,22,14,15,20.10
2014,07,22,14,16,20.20
2014,07,22,14,17,20.20
2014,07,22,14,18,20.20
2014,07,22,14,19,20.10
2014,07,22,14,20,20.10
2014,07,22,14,21,20.10
2014,07,22,14,22,20.00
2014,07,22,14,23,19.90
2014,07,22,14,24,19.90
2014,07,22,14,25,19.80
2014,07,22,14,26,19.80
2014,07,22,14,27,19.80
2014,07,22,14,28,19.80
2014,07,22,14,29,19.80
2014,07,22,14,30,19.90
2014,07,22,14,31,19.90
2014,07,22,14,32,19.90
2014,07,22,14,33,19.90
2014,07,22,14,34,19.90
2014,07,22,14,35,19.90
2014,07,22,14,36,19.90
2014,07,22,14,37,20.00
2014,07,22,14,38,20.00
2014,07,22,14,39,20.00
2014,07,22,14,40,20.10
2014,07,22,14,41,20.10
2014,07,22,14,42,20.20
2014,07,22,14,43,20.20
2014,07,22,14,44,20.30
2014,07,22,14,45,20.30
2014,07,22,14,46,20.30
2014,07,22,14,47,20.30
2014,07,22,14,48,20.30
2014,07,22,14,49,20.40
2014,07,22,14,50,20.40
2014,07,22,14,51,20.40
2014,07,22,14,52,20.50
2014,07,22,14,53,20.50
2014,07,22,14,54,20.60
2014,07,22,14,55,20.60
2014,07,22,14,56,20.60
2014,07,22,14,57,20.50
2014,07,22,14,58,20.40
2014,07,22,14,59,20.30
2014,07,22,15,00,20.30
2014,07,22,15,01,20.30
2014,07,22,15,02,20.30
2014,07,22,15,03,20.30
2014,07,22,15,04,20.30
2014,07,22,15,05,20.30
2014,07,22,15,06,20.40
2014,07,22,15,07,20.40
2014,07,22,15,08,20.50
2014,07,22,15,09,20.60
2014,07,22,15,10,20.70
2014,07,22,15,11,20.70
2014,07,22,15,12,20.70
2014,07,22,15,13,20.80
2014,07,22,15,14,20.80
2014,07,22,15,15,20.90
2014,07,22,15,16,21.00
2014,07,22,15,17,21.10
2014,07,22,15,18,21.10
2014,07,22,15,19,21.20
2014,07,22,15,20,21.30
2014,07,22,15,21,21.30
2014,07,22,15,22,21.40
2014,07,22,15,23,21.40
2014,07,22,15,24,21.40
2014,07,22,15,25,21.50
2014,07,22,15,26,21.60
2014,07,22,15,27,21.60
2014,07,22,15,28,21.60
2014,07,22,15,29,21.70
2014,07,22,15,30,21.70
2014,07,22,15,31,21.70
2014,07,22,15,32,21.70
2014,07,22,15,33,21.70
2014,07,22,15,34,21.60
2014,07,22,15,35,21.50
2014,07,22,15,36,21.50
2014,07,22,15,37,21.40
2014,07,22,15,38,21.40
2014,07,22,15,39,21.30
2014,07,22,15,40,21.30
2014,07,22,15,41,21.30
2014,07,22,15,42,21.30
2014,07,22,15,43,21.30
2014,07,22,15,44,21.30
2014,07,22,15,45,21.30
2014,07,22,15,46,21.30
2014,07,22,15,47,21.20
2014,07,22,15,48,21.20
2014,07,22,15,49,21.20
2014,07,22,15,50,21.20
2014,07,22,15,51,21.20
2014,07,22,15,52,21.20
2014,07,22,15,53,21.20
2014,07,22,15,54,21.20
2014,07,22,15,55,21.30
2014,07,22,15,56,21.30
2014,07,22,15,57,21.20
2014,07,22,15,58,21.10
2014,07,22,15,59,21.00
2014,07,22,16,00,21.00
2014,07,22,16,01,20.90
2014,07,22,16,02,21.00
2014,07,22,16,03,21.00
2014,07,22,16,04,21.00
2014,07,22,16,05,21.00
2014,07,22,16,06,21.00
2014,07,22,16,07,20.90
2014,07,22,16,08,20.90
2014,07,22,16,09,20.90
2014,07,22,16,10,20.90
2014,07,22,16,11,20.90
2014,07,22,16,12,20.90
2014,07,22,16,13,20.90
2014,07,22,16,14,21.00
2014,07,22,16,15,21.00
2014,07,22,16,16,20.90
2014,07,22,16,17,20.90
2014,07,22,16,18,20.80
2014,07,22,16,19,20.80
2014,07,22,16,20,20.80
2014,07,22,16,21,20.80
2014,07,22,16,22,20.80
2014,07,22,16,23,20.80
2014,07,22,16,24,20.70
2014,07,22,16,25,20.70
2014,07,22,16,26,20.60
2014,07,22,16,27,20.60
2014,07,22,16,28,20.60
2014,07,22,16,29,20.60
2014,07,22,16,30,20.60
2014,07,22,16,31,20.60
2014,07,22,16,32,20.60
2014,07,22,16,33,20.60
2014,07,22,16,34,20.60
2014,07,22,16,35,20.50
2014,07,22,16,36,20.60
2014,07,22,16,37,20.60
2014,07,22,16,38,20.60
2014,07,22,16,39,20.60
2014,07,22,16,40,20.60
2014,07,22,16,41,20.60
2014,07,22,16,42,20.60
2014,07,22,16,43,20.60
2014,07,22,16,44,20.50
2014,07,22,16,45,20.50
2014,07,22,16,46,20.40
2014,07,22,16,47,20.40
2014,07,22,16,48,20.30
2014,07,22,16,49,20.30
2014,07,22,16,50,20.30
2014,07,22,16,51,20.30
2014,07,22,16,52,20.40
2014,07,22,16,53,20.40
2014,07,22,16,54,20.40
2014,07,22,16,55,20.30
2014,07,22,16,56,20.30
2014,07,22,16,57,20.30
2014,07,22,16,58,20.30
2014,07,22,16,59,20.30
2014,07,22,17,00,20.30
2014,07,22,17,01,20.30
2014,07,22,17,02,20.30
2014,07,22,17,03,20.30
2014,07,22,17,04,20.30
2014,07,22,17,05,20.20
2014,07,22,17,06,20.20
2014,07,22,17,07,20.20
2014,07,22,17,08,20.20
2014,07,22,17,09,20.10
2014,07,22,17,10,20.10
2014,07,22,17,11,20.10
2014,07,22,17,12,20.10
2014,07,22,17,13,20.00
2014,07,22,17,14,19.90
2014,07,22,17,15,19.90
2014,07,22,17,16,19.90
2014,07,22,17,17,19.90
2014,07,22,17,18,19.90
2014,07,22,17,19,19.90
2014,07,22,17,20,19.90
2014,07,22,17,21,19.90
2014,07,22,17,22,19.80